Temperature
23 22 21 21 20 19 21 22 23 22 22 22 22 21 20 20 19 19 19 19 19 18 18 18 18 18 18 18 18 18 18 18 18 18 18 18 18 18 18 18 18 18 18 18 18 18 18 18 18
23 22 21 21 20 20 21 22 22 22 22 22 22 21 20 19 19 20 19 19 19 18 18 18 18 18 18 18 18 18 18 18 18 18 18 18 18 18 18 18 18 18 18 18 18 18 18 18 18
23 22 21 20 21 21 22 23 22 23 23 23 22 21 20 19 19 20 19 19 19 19 18 18 18 18 18 18 18 18 18 18 18 18 18 18 18 18 18 18 18 18 18 18 18 18 18 18 18
23 22 22 21 22 23 23 23 23 23 23 22 21 20 20 20 20 20 20 19 19 19 19 18 18 18 18 18 18 18 18 18 18 18 18 18 18 18 18 18 18 18 18 18 18 18 18 18 18
23 22 21 21 23 24 24 24 23 23 22 22 21 20 19 20 20 20 19 19 19 19 19 19 18 18 18 18 18 18 18 18 18 18 18 18 18 18 18 18 18 18 18 18 18 18 17 17 18
23 21 21 22 23 24 24 24 23 22 22 22 21 19 19 20 20 20 19 19 19 19 19 19 19 19 18 18 18 18 18 18 18 18 18 18 18 18 18 18 18 18 18 18 18 17 17 17 17
23 21 22 23 23 24 24 24 23 22 22 22 21 19 19 19 20 20 19 19 19 19 19 19 19 18 18 18 18 18 18 18 18 18 18 18 18 18 18 18 18 18 18 18 18 17 17 17 17
24 21 23 23 23 24 24 24 24 23 22 22 22 20 19 20 20 19 19 19 19 19 19 19 19 19 18 18 18 18 18 18 18 18 18 18 18 18 18 18 18 18 18 18 18 17 17 17 17
25 22 22 23 24 24 24 24 24 23 23 22 22 22 21 20 20 19 19 19 19 19 19 19 19 19 18 18 18 18 18 18 18 18 18 18 18 18 18 18 18 18 17 17 17 17 17 17 17
24 22 24 24 24 24 24 24 24 23 22 22 21 21 21 20 20 20 19 19 19 19 19 19 19 19 18 18 18 18 18 18 18 18 18 18 18 18 18 18 18 18 17 17 17 17 17 17 17
24 24 25 26 26 26 25 24 24 23 22 22 22 21 21 20 20 20 20 20 20 19 19 19 19 19 19 19 18 18 18 18 18 18 18 18 18 18 18 18 18 18 18 17 17 17 17 17 17
25 25 26 26 27 26 25 25 24 23 24 24 23 22 21 20 20 20 20 20 20 19 19 19 19 19 19 19 19 18 18 18 18 18 18 18 18 18 18 18 18 18 18 18 17 17 17 17 17
26 26 27 27 27 26 25 24 24 24 24 24 23 22 21 21 21 21 20 20 20 20 19 19 19 19 19 19 19 18 18 18 18 18 18 18 18 18 18 18 18 18 18 18 18 17 17 17 17
26 26 26 26 26 26 25 24 24 23 24 23 22 21 21 21 21 21 20 20 20 20 20 19 19 19 19 19 19 19 18 18 18 18 18 18 18 18 18 18 18 18 18 17 17 17 17 17 17
27 25 25 25 26 25 25 24 24 24 23 22 22 22 21 21 21 21 21 21 21 20 20 20 19 19 19 19 19 19 19 18 18 18 18 18 18 18 18 18 18 18 17 17 17 17 17 17 17
26 25 25 26 25 25 25 24 24 24 23 22 22 21 21 21 22 22 22 21 21 21 20 20 20 19 19 19 19 19 18 18 18 18 18 18 18 18 18 18 18 18 17 17 17 17 17 17 17
24 24 25 25 25 25 24 24 23 24 23 22 22 22 22 21 22 22 22 22 21 21 21 20 20 20 19 19 19 19 19 18 18 18 18 18 18 18 18 18 18 17 17 17 17 17 17 17 18
25 24 25 25 25 25 24 23 23 23 23 22 22 22 22 22 22 22 22 22 22 21 21 20 20 20 20 19 19 19 19 18 18 18 18 18 18 18 18 18 18 17 17 17 17 17 18 18 18
25 25 24 25 25 24 24 23 23 23 23 22 22 22 22 23 23 23 22 22 22 21 21 21 20 20 20 20 19 19 19 19 19 19 18 18 18 18 18 18 18 18 18 18 18 17 18 18 17
25 25 24 25 25 25 23 23 23 22 22 23 22 22 22 23 23 23 22 22 22 22 21 21 21 20 20 20 19 19 19 19 19 19 18 18 18 18 18 18 18 18 18 18 18 18 18 18 17
25 24 25 24 24 24 24 24 23 23 23 23 23 23 23 23 23 23 23 23 22 22 22 21 21 21 20 20 19 19 19 19 19 19 19 19 18 18 18 18 18 18 18 18 18 18 18 18 18
25 25 25 24 23 22 24 22 23 22 22 22 23 23 23 24 24 24 23 23 23 23 22 22 22 21 21 20 20 19 19 19 19 19 19 19 18 18 18 18 18 18 18 18 18 18 18 18 18
25 25 24 23 22 22 22 22 22 22 22 22 22 23 23 24 24 24 24 24 24 23 23 22 22 21 21 20 20 20 20 20 19 19 19 19 19 18 18 18 18 18 18 18 18 18 18 18 17
25 23 22 20 20 21 22 22 22 21 22 22 23 24 24 24 24 24 24 24 24 23 23 22 22 22 21 21 20 20 20 20 20 19 19 19 19 19 19 18 18 18 18 18 18 18 18 18 17
24 22 21 22 20 21 21 21 21 22 22 22 23 24 24 24 24 24 24 24 24 23 23 22 22 22 21 21 21 20 20 20 20 20 19 19 19 19 19 19 18 18 18 18 18 18 18 18 17
23 22 21 22 21 20 20 21 22 22 22 23 23 24 25 24 24 24 24 24 24 24 23 23 22 22 22 21 21 21 20 20 20 19 19 19 19 19 19 19 19 18 18 18 18 18 18 18 17
23 21 21 19 20 20 20 20 21 22 22 22 22 23 24 24 24 24 24 24 24 24 24 23 23 22 22 21 21 21 20 20 20 20 19 19 19 19 19 19 19 18 18 18 18 18 18 17 17
23 20 18 19 20 21 21 21 21 22 22 21 20 21 23 24 24 24 24 24 25 25 24 24 23 23 22 21 21 21 20 20 20 20 19 19 19 19 19 19 19 18 18 18 18 18 17 17 17
22 21 18 17 18 19 20 21 21 21 21 21 20 21 22 23 23 23 24 24 24 24 24 23 23 22 22 21 21 21 20 20 20 20 20 19 19 19 19 19 19 18 18 18 18 18 18 17 17
23 21 19 20 19 17 19 20 21 20 20 20 20 21 22 23 23 23 23 23 23 23 23 23 23 22 22 21 21 21 20 20 20 20 19 19 19 19 19 19 19 18 18 18 18 18 18 17 17
Wind_Speed
14 10 4 2 4 5 3 4 1 2 3 3 5 6 6 4 2 2 1 4 4 3 3 7 8 9 11 12 13 15 16 16 16 16 16 16 16 16 16 16 16 17 17 17 17 17 16 16 16
9 6 2 3 5 3 3 3 2 2 4 4 5 5 6 4 3 4 3 3 5 4 4 6 9 10 11 12 14 15 15 15 15 15 15 16 16 15 15 15 15 16 16 16 16 16 16 15 15
8 3 3 4 3 3 2 0 4 4 4 3 4 5 4 3 3 3 3 6 5 4 4 6 9 10 11 12 13 14 14 14 14 14 14 15 15 14 14 14 14 14 15 15 15 15 15 14 14
4 2 3 4 2 2 4 4 6 5 4 5 5 5 4 3 4 4 7 7 6 4 4 7 9 10 10 11 12 13 13 13 14 14 13 13 13 13 14 13 13 14 13 14 14 14 14 13 13
2 3 5 4 3 2 2 5 5 4 3 4 5 5 4 4 7 9 8 7 6 4 3 5 8 9 10 10 11 12 12 12 13 13 13 12 12 12 12 12 12 13 13 13 13 13 13 12 12
3 4 4 2 3 3 3 3 4 5 5 4 5 4 2 3 7 7 6 6 5 4 3 4 7 9 9 9 10 10 10 11 12 12 11 11 11 11 11 11 12 13 12 12 12 12 12 11 10
3 4 3 2 1 1 2 3 4 5 5 4 5 5 2 2 5 7 6 6 5 4 3 3 4 6 8 9 9 9 9 10 10 10 10 10 10 10 10 10 11 12 12 11 11 11 10 9 8
4 4 3 1 2 2 3 3 3 5 4 5 5 7 5 5 8 8 6 5 4 3 2 2 3 4 4 5 7 8 8 9 9 8 9 9 9 9 9 9 10 11 11 11 10 9 8 7 6
4 4 2 4 5 3 4 4 3 3 6 3 3 4 6 12 11 8 6 3 2 3 1 2 2 2 3 3 5 6 7 7 7 6 8 7 6 6 6 8 10 10 10 10 9 8 7 6 5
4 3 6 5 6 6 6 5 6 5 4 2 5 7 11 12 11 9 7 6 5 4 3 2 2 2 2 3 3 4 4 4 5 4 5 6 5 5 5 6 8 9 9 8 8 7 6 5 4
5 5 4 3 5 7 7 5 5 9 5 6 9 12 13 12 10 9 8 7 6 5 4 4 3 3 3 2 3 3 3 3 3 4 5 5 4 3 3 3 3 5 6 5 5 5 4 4 4
4 3 3 3 5 7 8 7 5 6 6 7 12 15 13 13 12 11 10 8 6 5 5 4 4 3 3 3 2 3 3 3 2 3 4 4 3 2 2 1 2 2 3 3 3 2 2 2 2
2 1 2 4 6 7 7 6 5 4 5 11 13 13 13 12 10 8 7 7 7 7 6 5 5 5 4 3 2 3 3 3 3 3 4 5 3 2 1 1 1 2 3 3 2 1 1 0 1
2 2 2 3 4 3 5 3 4 4 9 12 13 12 11 12 11 8 7 8 8 8 7 6 6 5 4 4 3 3 4 4 4 4 5 5 5 3 2 2 1 2 3 3 3 2 1 1 0
3 5 4 2 3 3 6 1 4 6 11 12 12 11 10 10 9 10 10 9 9 8 7 7 6 5 5 5 4 4 4 4 4 4 5 6 6 5 3 2 2 2 3 3 2 1 1 1 1
5 5 1 3 3 4 6 6 6 9 12 11 11 11 10 9 9 9 9 8 8 7 7 7 7 6 6 5 4 3 4 4 4 5 5 6 7 6 4 3 3 3 3 2 2 1 1 1 1
4 1 3 3 3 4 5 6 5 10 11 11 11 11 10 9 9 9 9 10 9 9 8 7 6 7 6 5 3 3 3 3 4 5 5 6 7 7 5 3 3 4 3 2 2 2 2 2 2
4 3 4 5 5 5 5 7 5 11 12 11 10 9 10 11 12 11 10 10 9 8 8 8 6 6 6 4 3 2 1 2 3 4 5 6 7 7 6 4 3 4 2 2 2 2 2 2 2
6 5 5 6 4 5 7 7 6 10 11 11 11 10 11 12 9 9 10 9 8 8 8 8 8 7 6 3 3 3 2 2 2 3 5 6 7 7 6 3 3 4 4 3 3 2 2 1 1
5 3 4 3 1 4 4 5 5 9 13 13 13 13 13 10 8 9 9 10 10 10 10 9 9 8 7 5 4 3 2 2 2 2 3 5 6 6 6 5 4 4 3 3 3 3 2 1 2
4 6 6 4 2 3 2 4 4 4 6 8 10 11 11 13 13 12 11 11 11 12 12 12 10 9 8 6 4 3 2 1 1 1 2 3 5 6 6 6 5 4 4 4 4 4 4 3 2
5 7 6 5 4 1 2 3 7 4 5 9 11 11 13 13 13 12 13 13 13 14 12 11 10 9 8 8 6 6 5 4 4 3 3 2 4 5 5 6 5 4 4 4 4 4 3 3 3
6 1 4 4 4 2 1 3 8 2 6 11 12 13 14 14 14 14 15 15 13 12 11 10 9 9 8 8 8 7 5 4 3 2 3 2 2 3 4 5 5 4 4 4 4 4 4 4 4
5 7 8 6 5 0 4 5 7 5 8 8 10 12 13 14 14 13 12 11 10 9 9 9 10 9 9 9 8 8 8 6 4 4 4 3 2 2 3 4 4 4 4 4 4 4 4 4 4
6 6 4 4 3 6 3 4 9 9 8 9 10 10 11 12 12 12 12 12 11 11 11 10 11 10 9 9 9 9 8 7 6 5 5 4 3 3 4 4 4 4 4 4 4 4 4 4 4
6 10 8 7 6 5 1 6 8 8 6 6 7 6 7 10 12 13 13 13 13 13 12 12 12 11 10 10 9 8 7 6 5 5 5 5 5 5 4 5 5 5 4 4 4 4 4 4 5
7 5 7 7 3 1 5 7 9 5 5 5 4 2 5 9 11 12 12 12 13 13 13 13 12 10 10 10 9 7 7 7 7 6 5 4 4 4 5 5 5 4 4 4 4 4 4 4 4
5 9 6 7 7 4 5 5 6 6 7 5 3 3 4 5 7 8 9 11 11 12 11 10 10 10 9 9 9 8 8 8 7 6 6 5 5 4 5 5 5 5 4 4 4 3 3 4 4
4 5 6 5 5 7 4 7 6 7 6 5 4 3 3 4 7 8 8 8 8 8 8 9 8 8 8 9 8 7 7 7 7 6 7 6 5 5 5 5 5 5 5 5 5 5 4 5 4
4 6 7 5 5 5 5 7 4 4 4 3 3 1 1 1 3 6 6 6 7 7 7 7 7 7 7 7 7 7 6 6 6 7 6 6 6 5 5 5 6 6 6 5 5 6 5 5 5
Wind_Direction
145 143 144 124 58 45 6 338 30 69 56 42 78 88 97 81 103 141 116 114 108 105 113 125 121 118 114 112 110 115 121 122 123 124 125 125 126 126 126 126 126 128 129 129 128 126 125 125 124
144 153 141 66 75 50 330 331 62 80 129 121 81 76 72 61 66 107 123 130 116 111 110 128 123 121 118 115 114 116 120 124 126 126 127 127 127 128 131 130 129 130 130 129 128 127 126 126 125
156 174 90 71 87 157 202 153 116 104 109 86 73 62 73 94 116 140 154 132 113 107 117 135 126 123 120 118 117 118 120 122 126 127 128 128 129 131 132 132 132 133 132 131 129 128 127 126 126
148 74 62 63 45 235 185 166 138 122 71 52 82 67 61 78 132 136 130 127 116 105 119 134 127 125 122 121 120 121 121 123 129 131 130 131 133 134 134 136 134 133 131 129 129 129 128 126 126
83 82 55 33 0 7 114 142 136 114 86 67 81 80 43 31 97 117 125 127 124 113 118 136 131 130 127 125 124 124 124 125 131 134 134 136 137 138 138 139 137 136 132 129 128 129 128 128 129
73 72 70 29 5 40 91 119 110 97 98 94 90 88 42 90 113 127 123 118 119 117 115 133 136 135 134 132 130 128 127 126 128 135 139 140 141 143 141 140 140 136 133 130 129 130 131 131 130
117 101 117 141 81 88 154 113 120 126 121 127 118 100 91 135 131 123 112 103 102 101 101 108 125 134 136 136 135 133 132 130 130 133 138 144 145 145 142 142 140 137 135 134 133 132 131 131 130
149 106 91 141 154 201 151 115 129 133 126 124 121 136 176 173 132 112 98 93 97 95 93 99 105 113 121 136 138 135 131 130 131 133 138 143 145 146 144 142 142 139 138 138 136 134 130 128 128
124 79 166 201 180 191 152 125 136 106 117 127 123 148 157 137 129 121 110 100 118 139 110 109 107 111 118 138 144 136 132 131 128 125 130 127 115 120 131 142 144 142 142 142 140 137 133 130 123
111 139 214 202 181 166 159 144 148 119 128 110 87 97 121 134 143 149 156 165 176 183 182 165 153 143 147 157 128 120 118 117 109 109 111 110 114 120 130 140 150 148 145 143 138 133 128 115 109
156 188 211 199 170 145 143 138 138 137 180 190 161 147 144 148 157 167 176 179 187 187 188 181 175 164 160 147 134 126 119 116 115 115 116 113 105 102 99 99 122 129 133 122 122 117 111 110 114
167 238 191 181 144 141 148 142 141 170 206 170 156 152 154 163 174 181 184 186 179 176 194 191 183 174 173 166 155 146 143 141 142 143 138 129 119 107 102 108 113 114 118 111 106 115 120 115 114
167 202 172 149 138 142 130 141 154 179 138 132 140 151 163 173 182 187 184 179 175 181 191 193 186 184 179 172 182 169 165 168 172 169 165 156 149 144 142 150 141 142 143 138 139 137 124 102 58
189 104 87 111 122 131 122 123 127 171 140 139 151 166 174 179 182 179 181 183 183 187 189 182 185 186 176 179 183 179 179 181 181 187 188 179 174 169 165 169 170 179 177 171 168 175 180 241 263
75 74 47 87 127 136 114 129 212 170 149 154 167 176 182 186 185 190 191 189 188 188 183 177 180 175 177 188 194 186 189 187 185 196 197 191 187 184 178 173 183 202 195 179 171 172 164 224 241
56 69 90 251 150 140 136 234 218 161 159 170 178 183 189 194 195 198 193 190 186 179 178 183 184 174 179 183 183 180 186 189 196 197 197 198 196 192 182 181 198 201 188 177 170 166 161 206 230
45 117 224 247 196 154 172 238 211 169 172 182 188 190 192 195 202 203 196 192 186 181 178 181 181 174 177 172 161 169 174 187 201 196 193 198 197 196 188 192 201 190 178 182 193 173 171 195 222
212 204 225 220 214 164 204 240 212 181 183 192 195 196 197 202 206 200 194 193 186 179 176 179 179 176 166 153 141 143 165 199 203 200 199 199 198 197 190 196 199 183 177 187 185 177 177 193 205
179 185 230 242 206 177 216 241 224 188 192 199 202 203 207 214 208 192 189 187 181 179 179 183 181 180 163 157 165 170 200 203 205 207 204 202 203 197 187 196 191 184 189 195 181 170 175 190 158
164 193 238 275 175 171 220 254 232 198 203 204 205 208 210 208 200 195 190 186 186 187 189 189 189 184 180 178 172 166 166 182 196 202 197 201 202 199 198 190 194 189 184 181 176 168 162 184 164
196 199 215 208 51 49 90 312 267 238 219 218 217 212 209 205 203 199 193 192 190 194 195 197 193 189 185 173 142 121 105 92 138 182 197 204 203 200 196 189 189 187 181 191 194 184 177 189 197
237 222 190 166 128 258 122 258 281 244 241 228 224 215 213 211 203 198 195 195 197 199 195 193 188 187 184 172 170 170 179 194 202 193 198 204 196 195 195 191 186 184 186 196 205 195 191 180 197
210 154 138 134 132 84 39 173 282 283 246 241 228 219 215 210 204 200 199 199 198 193 189 189 183 186 184 181 184 183 193 200 186 172 182 201 203 200 199 190 180 185 194 203 203 194 196 193 192
137 73 59 54 77 175 229 179 268 240 229 242 233 221 212 206 203 201 197 188 186 181 181 182 184 191 187 187 189 192 194 191 183 192 194 203 208 212 205 188 183 190 201 206 204 199 201 204 200
106 96 44 12 16 243 234 191 246 251 239 236 240 229 212 200 196 195 189 184 181 179 183 183 186 194 191 190 196 198 196 190 196 202 203 200 206 214 215 200 193 200 205 205 195 194 206 204 200
172 147 165 192 210 253 246 224 250 259 266 266 259 241 206 194 194 196 192 188 185 183 184 184 188 194 190 194 202 199 194 191 200 205 203 205 212 217 208 199 201 206 203 205 195 200 208 203 205
143 169 165 140 149 190 266 278 299 280 291 287 285 246 208 199 195 195 187 182 182 183 188 187 186 188 189 195 196 196 193 192 198 199 203 208 213 212 199 197 200 204 198 195 189 201 210 199 206
137 141 106 129 152 216 271 267 250 267 268 283 292 272 240 207 194 189 185 184 183 186 182 177 182 188 190 191 198 204 199 197 192 186 201 210 213 209 194 197 199 196 193 192 191 204 213 209 221
95 100 110 122 152 161 218 260 233 229 238 244 255 251 242 207 189 181 177 177 171 165 163 168 175 178 186 193 198 200 198 195 188 197 206 209 205 200 196 196 195 197 199 197 198 208 205 214 227
160 160 146 154 203 176 179 257 285 237 244 231 241 283 321 165 160 155 149 146 152 152 155 164 169 179 192 194 191 193 190 187 196 208 212 202 203 203 202 197 200 203 205 201 204 216 212 215 226
Height
1482 1483 1484 1487 1490 1499 1502 1494 1488 1488 1488 1489 1489 1490 1492 1495 1499 1504 1500 1498 1498 1498 1499 1499 1499 1500 1500 1501 1501 1500 1502 1505 1507 1509 1510 1512 1514 1516 1518 1520 1522 1524 1526 1528 1531 1533 1535 1537 1539
1483 1484 1487 1488 1497 1511 1505 1492 1490 1489 1489 1490 1491 1492 1493 1496 1496 1498 1498 1499 1500 1500 1500 1501 1501 1502 1503 1503 1504 1504 1506 1508 1510 1511 1513 1514 1516 1518 1520 1522 1524 1526 1528 1530 1533 1535 1537 1539 1541
1484 1485 1488 1490 1500 1507 1501 1492 1490 1490 1490 1491 1493 1494 1496 1498 1498 1499 1500 1500 1501 1502 1502 1503 1503 1504 1505 1506 1507 1508 1509 1510 1512 1513 1515 1517 1519 1520 1522 1524 1526 1528 1530 1532 1534 1536 1538 1540 1542
1485 1487 1489 1495 1500 1495 1492 1490 1490 1491 1492 1492 1494 1497 1499 1500 1501 1501 1501 1502 1503 1504 1504 1505 1506 1507 1507 1509 1510 1511 1512 1512 1514 1516 1517 1519 1521 1523 1525 1526 1528 1529 1532 1534 1536 1538 1540 1542 1544
1486 1487 1494 1502 1498 1492 1489 1490 1491 1492 1493 1495 1495 1498 1501 1502 1502 1503 1503 1504 1505 1506 1507 1507 1508 1509 1510 1511 1512 1513 1514 1515 1516 1518 1520 1521 1523 1525 1526 1528 1530 1531 1533 1536 1538 1540 1542 1543 1545
1487 1489 1503 1508 1499 1492 1491 1491 1492 1493 1495 1496 1497 1500 1503 1504 1504 1505 1505 1506 1507 1508 1509 1509 1510 1511 1512 1513 1515 1516 1517 1517 1519 1520 1522 1524 1525 1527 1528 1530 1531 1533 1535 1537 1540 1541 1543 1545 1546
1489 1493 1502 1502 1500 1496 1493 1492 1493 1494 1496 1498 1498 1501 1503 1505 1506 1507 1507 1508 1509 1510 1511 1512 1513 1514 1515 1516 1517 1518 1519 1520 1521 1522 1524 1525 1527 1528 1530 1531 1532 1534 1536 1539 1541 1543 1545 1546 1548
1487 1493 1499 1501 1500 1497 1492 1493 1494 1495 1497 1499 1499 1501 1503 1505 1507 1508 1509 1510 1511 1512 1513 1514 1515 1516 1517 1518 1519 1520 1521 1522 1523 1524 1525 1527 1528 1530 1532 1533 1534 1536 1538 1540 1542 1544 1546 1548 1549
1488 1497 1503 1499 1497 1494 1492 1493 1495 1496 1497 1499 1500 1501 1503 1505 1507 1509 1510 1512 1513 1514 1515 1516 1517 1518 1519 1520 1521 1522 1523 1524 1525 1526 1527 1529 1530 1531 1533 1535 1536 1538 1540 1542 1544 1546 1548 1549 1551
1487 1498 1494 1488 1487 1488 1490 1492 1495 1497 1499 1500 1500 1502 1504 1506 1508 1509 1511 1512 1514 1515 1516 1518 1519 1520 1521 1522 1523 1524 1525 1526 1527 1528 1529 1531 1532 1533 1535 1536 1538 1539 1541 1544 1545 1547 1549 1551 1552
1485 1489 1485 1484 1484 1486 1489 1492 1494 1496 1499 1498 1499 1501 1504 1506 1508 1510 1511 1513 1515 1516 1518 1519 1520 1521 1523 1524 1525 1526 1527 1528 1529 1530 1531 1532 1534 1535 1536 1538 1539 1541 1543 1545 1547 1548 1550 1552 1553
1484 1483 1482 1482 1483 1486 1488 1491 1494 1495 1496 1497 1499 1501 1503 1506 1508 1510 1511 1513 1515 1517 1518 1520 1521 1522 1524 1525 1526 1527 1528 1530 1531 1532 1533 1534 1535 1537 1538 1540 1542 1543 1545 1546 1548 1549 1551 1553 1554
1483 1482 1482 1482 1484 1486 1488 1491 1493 1495 1495 1497 1500 1503 1504 1506 1508 1511 1513 1514 1516 1517 1519 1520 1522 1523 1525 1526 1527 1528 1530 1531 1532 1533 1534 1536 1537 1539 1540 1542 1543 1545 1546 1547 1549 1550 1552 1553 1554
1481 1482 1483 1484 1485 1488 1490 1492 1494 1494 1496 1498 1500 1503 1505 1506 1508 1510 1512 1514 1516 1517 1519 1521 1522 1524 1525 1526 1528 1529 1530 1532 1533 1534 1535 1537 1538 1540 1541 1543 1544 1546 1547 1548 1550 1551 1552 1553 1554
1481 1484 1486 1486 1486 1488 1491 1496 1494 1493 1495 1498 1500 1503 1505 1506 1508 1510 1511 1514 1515 1517 1519 1521 1522 1524 1526 1527 1529 1530 1531 1532 1534 1535 1536 1538 1539 1541 1542 1543 1545 1546 1548 1549 1550 1551 1552 1553 1554
1483 1491 1497 1489 1487 1489 1495 1501 1492 1493 1495 1497 1499 1502 1504 1506 1507 1509 1511 1513 1516 1517 1519 1521 1522 1524 1526 1528 1529 1531 1532 1533 1534 1536 1537 1538 1540 1541 1542 1544 1545 1547 1548 1549 1550 1551 1552 1553 1554
1494 1502 1500 1493 1487 1488 1493 1497 1490 1491 1494 1496 1498 1500 1502 1504 1506 1508 1510 1512 1514 1517 1519 1520 1522 1524 1526 1528 1529 1531 1532 1533 1534 1536 1537 1539 1540 1541 1543 1544 1545 1546 1547 1548 1550 1551 1552 1552 1553
1500 1500 1498 1496 1487 1488 1492 1492 1488 1489 1492 1494 1496 1498 1500 1501 1503 1505 1508 1511 1513 1515 1518 1520 1522 1523 1525 1527 1529 1530 1532 1533 1534 1536 1537 1539 1540 1541 1543 1544 1545 1546 1547 1548 1549 1550 1551 1551 1552
1488 1493 1496 1491 1484 1488 1491 1490 1488 1488 1490 1492 1494 1495 1496 1498 1501 1504 1506 1509 1512 1514 1516 1518 1520 1522 1524 1526 1527 1529 1530 1532 1534 1535 1537 1538 1540 1541 1542 1543 1544 1545 1546 1547 1548 1549 1549 1550 1551
1486 1493 1494 1488 1483 1487 1491 1490 1485 1486 1486 1487 1489 1490 1492 1495 1499 1501 1504 1506 1509 1512 1514 1516 1519 1521 1522 1524 1526 1528 1530 1531 1533 1534 1536 1537 1539 1540 1541 1542 1543 1544 1545 1546 1547 1548 1548 1549 1549
1486 1490 1490 1491 1487 1487 1491 1495 1488 1484 1485 1486 1486 1487 1489 1491 1494 1497 1500 1503 1506 1509 1511 1514 1516 1519 1521 1523 1525 1527 1528 1530 1531 1532 1534 1536 1537 1538 1539 1541 1542 1543 1544 1545 1545 1546 1547 1547 1548
1488 1479 1481 1487 1496 1504 1497 1513 1493 1486 1484 1482 1482 1483 1485 1487 1490 1493 1496 1499 1502 1505 1509 1512 1514 1517 1519 1521 1523 1525 1526 1527 1529 1531 1533 1534 1536 1537 1538 1539 1540 1541 1542 1543 1544 1545 1545 1546 1546
1478 1474 1480 1486 1496 1505 1502 1510 1500 1487 1486 1480 1477 1477 1479 1482 1485 1488 1491 1494 1498 1502 1506 1509 1512 1514 1517 1519 1521 1523 1524 1526 1528 1529 1531 1533 1534 1535 1536 1537 1538 1539 1540 1541 1542 1543 1543 1543 1544
1471 1480 1488 1496 1504 1517 1506 1511 1505 1490 1481 1474 1471 1471 1473 1475 1479 1483 1488 1491 1495 1499 1503 1506 1509 1512 1515 1517 1519 1521 1522 1524 1526 1527 1529 1531 1532 1533 1535 1536 1537 1537 1538 1539 1540 1541 1541 1541 1542
1473 1493 1514 1516 1525 1521 1504 1506 1499 1476 1470 1468 1466 1466 1468 1471 1475 1479 1483 1487 1491 1495 1499 1503 1506 1509 1512 1514 1516 1518 1520 1522 1524 1526 1528 1529 1530 1531 1533 1534 1535 1535 1536 1537 1538 1538 1539 1539 1540
1475 1485 1511 1522 1525 1518 1506 1506 1486 1468 1465 1464 1463 1463 1465 1467 1470 1473 1477 1482 1486 1490 1495 1499 1502 1505 1509 1512 1514 1516 1518 1520 1522 1524 1526 1527 1528 1529 1530 1531 1532 1533 1534 1534 1535 1536 1536 1537 1537
1476 1484 1484 1505 1512 1517 1511 1498 1480 1466 1464 1463 1462 1461 1461 1463 1466 1469 1473 1478 1482 1486 1490 1494 1498 1502 1506 1509 1511 1514 1515 1518 1520 1522 1523 1524 1526 1527 1528 1529 1530 1530 1531 1532 1532 1533 1533 1534 1534
1465 1476 1493 1505 1519 1521 1509 1501 1491 1472 1467 1463 1462 1461 1460 1461 1464 1467 1470 1474 1478 1482 1487 1492 1496 1500 1503 1506 1508 1511 1513 1514 1517 1519 1520 1522 1523 1524 1525 1526 1527 1527 1528 1529 1530 1530 1531 1531 1531
1472 1479 1489 1501 1503 1516 1518 1503 1471 1468 1464 1463 1461 1460 1460 1461 1462 1465 1468 1472 1476 1481 1485 1489 1493 1497 1500 1503 1505 1508 1510 1511 1513 1515 1516 1518 1520 1521 1522 1522 1523 1524 1525 1526 1526 1527 1527 1528 1528
1464 1472 1483 1495 1501 1506 1508 1497 1463 1463 1461 1460 1460 1460 1459 1460 1462 1465 1467 1471 1475 1479 1483 1487 1490 1493 1497 1500 1502 1504 1506 1508 1510 1511 1513 1515 1516 1517 1518 1519 1520 1521 1522 1523 1523 1524 1524 1524 1525